Home   Weather   Portland   Past weeks

Flag for USA Past Weather in Portland, Maine, USA — Yesterday and Last 2 Weeks

Now
65 °F

Partly sunny.


Feels Like: 65 °F
Forecast: 58 / 72 °F
Wind: 5 mph from West

Location: Portland - Portland International Jetport

Current Time: Jun 29, 2017 at 8:26:26 am

Latest Report: Jun 29, 2017 at 7:51 am


Visibility: 10 mi

Pressure: 30.09 "Hg

Humidity: 68%

Dew Point: 54 °F

Location of PortlandLocation

Past Weather in Portland — Graph

°F

Portland Temperature Yesterday

Maximum temperature yesterday: 74 °F (at 3:51 pm)
Minimum temperature yesterday: 52 °F (at 3:51 am)
Average temperature yesterday: 64 °F

High & Low Weather Summary for the Past Weeks

 TemperatureHumidityPressure
High84 °F (Jun 24, 2:51 pm)100% (Jun 18, 4:08 am)30.13 "Hg (Jun 18, 4:08 am)
Low49 °F (Jun 15, 4:51 am)24% (Jun 14, 12:51 pm)29.46 "Hg (Jun 24, 5:04 am)
Average66 °F72%29.89 "Hg
* Reported Jun 14 6:51 am — Jun 29 6:51 am, Portland. Weather by CustomWeather, © 2017

Note: Actual official high and low records may vary slightly from our data, if they occured in-between our weather recording intervals... More about our weather records

Advertising

Portland Weather History for the Previous 24 Hours

Scroll right to see more
 ConditionsComfort  
Time TempWeatherWind HumidityBarometerVisibility
6:51 am
Thu, Jun 29
60 °FPartly sunny.3 mph80%30.09 "Hg10 mi
5:51 am54 °FScattered clouds.3 mph90%30.08 "Hg10 mi
4:51 am54 °FPassing clouds.5 mph90%30.08 "Hg10 mi
3:51 am54 °FClear.5 mph90%30.07 "Hg10 mi
2:51 am56 °FClear.3 mph87%30.05 "Hg10 mi
1:51 am58 °FPassing clouds.3 mph81%30.06 "Hg10 mi
12:51 am58 °FClear.No wind81%30.05 "Hg10 mi
11:51 pm
Wed, Jun 28
60 °FClear.3 mph75%30.04 "Hg10 mi
10:51 pm62 °FClear.No wind70%30.05 "Hg10 mi
9:51 pm64 °FPassing clouds.6 mph63%30.04 "Hg10 mi
8:51 pm66 °FClear.5 mph59%30.03 "Hg10 mi
7:51 pm69 °FScattered clouds.5 mph49%30.01 "Hg10 mi
6:51 pm71 °FScattered clouds.13 mph42%29.99 "Hg10 mi
5:51 pm72 °FScattered clouds.10 mph43%29.98 "Hg10 mi
4:51 pm72 °FScattered clouds.13 mph43%29.98 "Hg10 mi
3:51 pm74 °FScattered clouds.7 mph46%29.98 "Hg10 mi
2:51 pm69 °FMostly cloudy.9 mph59%29.98 "Hg10 mi
1:51 pm73 °FPartly sunny.7 mph44%29.97 "Hg10 mi
12:51 pm71 °FBroken clouds.6 mph51%29.97 "Hg10 mi
11:51 am71 °FBroken clouds.9 mph51%29.97 "Hg10 mi
10:51 am69 °FScattered clouds.7 mph57%29.96 "Hg10 mi
9:51 am67 °FPassing clouds.13 mph61%29.96 "Hg10 mi
8:51 am64 °FPassing clouds.8 mph73%29.97 "Hg10 mi
Weather by CustomWeather, © 2017

See weather overviewHow to use our weather pages